Location: Unspecified
(0.0000°N, 0.0000°E)
Time: 04:26:02
(UTC+00:00)

Tiros 1 - All Passes

Search period start: 25 August 2016 00:00
Search period end: 04 September 2016 00:00
Orbit: 631 x 665 km, 48.4° (Epoch: 23 August)

Date Brightness Start Highest point End Pass type
(mag) Time Alt. Az. Time Alt. Az. Time Alt. Az.
25 Aug - 02:59:42 10° SSE 03:02:11 14° SE 03:04:38 10° E visible
25 Aug - 04:39:50 10° WSW 04:44:15 43° NW 04:48:38 10° NNE visible
25 Aug - 15:11:16 10° N 15:15:13 26° NE 15:19:11 10° ESE daylight
25 Aug - 16:53:21 10° WNW 16:57:16 25° SW 17:01:13 10° S daylight
26 Aug - 03:24:01 10° SSW 03:28:30 46° SE 03:32:55 10° NE visible
26 Aug - 05:08:18 10° W 05:10:32 13° NW 05:12:46 10° NNW visible
26 Aug - 15:36:41 10° NW 15:41:27 87° NE 15:46:16 10° SE daylight
27 Aug - 02:10:35 10° SSE 02:12:38 13° SE 02:14:40 10° ESE night (unlit)
27 Aug - 03:50:13 10° SW 03:54:43 49° NW 03:59:11 10° NNE visible
27 Aug - 14:21:54 10° N 14:25:40 23° NE 14:29:26 10° ESE daylight
27 Aug - 16:03:39 10° WNW 16:07:42 28° SW 16:11:49 10° S daylight
28 Aug - 02:34:33 10° SSW 02:38:58 41° SE 02:43:18 10° ENE night (unlit)
28 Aug - 04:18:21 10° W 04:21:00 15° NW 04:23:38 10° NNW visible
28 Aug - 14:47:10 10° NW 14:51:54 78° NE 14:56:42 10° SE daylight
29 Aug - 01:21:37 10° SSE 01:23:04 11° SE 01:24:32 10° ESE night (unlit)
29 Aug - 03:00:37 10° SW 03:05:12 56° NW 03:09:43 10° NNE visible
29 Aug - 13:32:34 10° N 13:36:06 21° NE 13:39:40 10° E daylight
29 Aug - 15:13:58 10° WNW 15:18:09 31° SW 15:22:24 10° SSE daylight
30 Aug - 01:45:06 10° SSW 01:49:25 36° SE 01:53:41 10° ENE night (unlit)
30 Aug - 03:28:27 10° W 03:31:27 17° NW 03:34:25 10° N visible
30 Aug - 13:57:39 10° NNW 14:02:21 69° NE 14:07:07 10° SE daylight
31 Aug - 02:11:01 10° SW 02:15:39 63° NW 02:20:15 10° NNE night (unlit)
31 Aug - 12:43:16 10° N 12:46:34 19° NE 12:49:52 10° E daylight
31 Aug - 14:24:18 10° WNW 14:28:36 34° SW 14:32:57 10° SSE daylight
01 Sep - 00:55:39 10° SSW 00:59:53 33° SE 01:04:03 10° ENE night (unlit)
01 Sep - 02:38:38 10° W 02:41:54 19° NW 02:45:10 10° N night (unlit)
01 Sep - 13:08:10 10° NNW 13:12:49 61° NE 13:17:31 10° SE daylight
01 Sep - 14:53:47 10° WSW 14:54:58 11° SW 14:56:08 10° SW daylight
02 Sep - 01:21:26 10° SW 01:26:07 71° NW 01:30:44 10° NNE night (unlit)
02 Sep - 11:54:01 10° N 11:57:01 17° NE 12:00:00 10° E daylight
02 Sep - 13:34:40 10° WNW 13:39:03 38° SW 13:43:30 10° SSE daylight
03 Sep - 00:06:13 10° S 00:10:20 29° SE 00:14:23 10° ENE night (unlit)
03 Sep - 01:48:50 10° W 01:52:22 21° NW 01:55:52 10° N night (unlit)
03 Sep - 12:18:41 10° NNW 12:23:16 54° NE 12:27:54 10° SE daylight
03 Sep - 14:03:31 10° WSW 14:05:24 12° SW 14:07:17 10° SSW daylight
